Location: Hackbridge
(51.3833°N, 0.1500°W)
Time: 21:58:52
(UTC+00:00)

HJ-1C - Pass Details

Date: 13 October 2019
Orbit: 434 x 449 km, 97.2° (Epoch: 21 November)

Event Time Altitude Azimuth Distance (km) Brightness Sun altitude
Exits shadow 18:14:51 10° 127° (SE) 1,556 5.6 -10.5°
Maximum altitude 18:17:42 28° 68° (ENE) 889 4.4 -10.9°
Drops below altitude 10° 18:20:38 10° 8° (N) 1,588 6.1 -11.4°
Sets 18:22:51 0° 356° (N) 2,462 7.2 -11.8°
